TimeCST,TemperatureF,Dew PointF,Humidity,Sea Level PressureIn,VisibilityMPH,Wind Direction,Wind SpeedMPH,Gust SpeedMPH,PrecipitationIn,Events,Conditions,WindDirDegrees,DateUTC
12:15 AM,26.6,19.4,74,30.07,10.0,ESE,6.9,-,N/A,,Clear,120,2012-12-09 06:15:00
12:35 AM,26.6,19.4,74,30.07,10.0,ESE,6.9,-,N/A,,Scattered Clouds,120,2012-12-09 06:35:00
12:55 AM,26.6,21.2,80,30.08,10.0,SE,5.8,-,N/A,,Scattered Clouds,130,2012-12-09 06:55:00
1:15 AM,26.6,21.2,80,30.10,10.0,ESE,4.6,-,N/A,,Mostly Cloudy,120,2012-12-09 07:15:00
1:35 AM,26.6,21.2,80,30.10,10.0,East,4.6,-,N/A,,Overcast,100,2012-12-09 07:35:00
1:55 AM,26.6,21.2,80,30.09,10.0,East,5.8,-,N/A,,Overcast,100,2012-12-09 07:55:00
2:15 AM,26.6,21.2,80,30.06,10.0,East,10.4,-,N/A,,Overcast,90,2012-12-09 08:15:00
2:35 AM,26.6,21.2,80,30.05,10.0,East,9.2,-,N/A,,Overcast,90,2012-12-09 08:35:00
2:55 AM,24.8,21.2,86,30.04,10.0,East,9.2,-,N/A,,Scattered Clouds,90,2012-12-09 08:55:00
3:15 AM,26.6,21.2,80,30.05,10.0,East,8.1,-,N/A,,Mostly Cloudy,100,2012-12-09 09:15:00
3:35 AM,26.6,21.2,80,30.04,10.0,East,10.4,-,N/A,,Overcast,100,2012-12-09 09:35:00
3:55 AM,26.6,21.2,80,30.02,10.0,East,11.5,-,N/A,,Overcast,90,2012-12-09 09:55:00
4:15 AM,26.6,21.2,80,30.02,10.0,East,11.5,-,N/A,,Overcast,90,2012-12-09 10:15:00
4:35 AM,26.6,21.2,80,30.03,10.0,East,10.4,-,N/A,,Overcast,90,2012-12-09 10:35:00
4:55 AM,26.6,21.2,80,30.03,10.0,East,9.2,-,N/A,,Overcast,90,2012-12-09 10:55:00
5:15 AM,26.6,21.2,80,30.04,10.0,East,8.1,-,N/A,,Overcast,90,2012-12-09 11:15:00
5:35 AM,26.6,21.2,80,30.04,10.0,East,10.4,-,N/A,,Overcast,90,2012-12-09 11:35:00
5:55 AM,26.6,21.2,80,30.04,10.0,East,10.4,-,N/A,,Overcast,100,2012-12-09 11:55:00
6:15 AM,26.6,21.2,80,30.03,10.0,East,12.7,-,N/A,,Overcast,100,2012-12-09 12:15:00
6:35 AM,26.6,21.2,80,30.02,7.0,East,12.7,-,N/A,Snow,Light Snow,90,2012-12-09 12:35:00
6:55 AM,26.6,21.2,80,30.02,5.0,East,12.7,-,N/A,Snow,Light Snow,90,2012-12-09 12:55:00
7:15 AM,26.6,21.2,80,30.01,10.0,East,10.4,-,N/A,,Overcast,80,2012-12-09 13:15:00
7:35 AM,26.6,21.2,80,29.99,10.0,East,10.4,-,N/A,,Overcast,80,2012-12-09 13:35:00
7:55 AM,26.6,23.0,86,30.01,10.0,East,10.4,-,N/A,,Mostly Cloudy,90,2012-12-09 13:55:00
8:15 AM,28.4,24.8,86,30.00,10.0,East,11.5,-,N/A,,Mostly Cloudy,90,2012-12-09 14:15:00
8:35 AM,28.4,24.8,86,30.00,10.0,East,11.5,-,N/A,,Overcast,100,2012-12-09 14:35:00
8:55 AM,28.4,24.8,86,30.00,2.5,East,11.5,-,N/A,Snow,Light Snow,90,2012-12-09 14:55:00
9:15 AM,28.4,26.6,93,29.99,1.2,East,15.0,-,N/A,Snow,Light Snow,90,2012-12-09 15:15:00
9:35 AM,28.4,24.8,86,30.00,1.5,East,11.5,-,N/A,Snow,Light Snow,90,2012-12-09 15:35:00
9:55 AM,28.4,26.6,93,29.99,1.8,East,10.4,-,N/A,Snow,Light Snow,90,2012-12-09 15:55:00
10:15 AM,28.4,26.6,93,29.99,1.2,East,10.4,-,N/A,Snow,Light Snow,90,2012-12-09 16:15:00
10:35 AM,28.4,26.6,93,29.99,1.0,East,12.7,-,N/A,Snow,Light Snow,90,2012-12-09 16:35:00
10:55 AM,28.4,26.6,93,29.98,1.0,East,10.4,-,N/A,Snow,Light Snow,80,2012-12-09 16:55:00
11:15 AM,28.4,26.6,93,29.96,1.0,East,9.2,-,N/A,Snow,Light Snow,80,2012-12-09 17:15:00
11:35 AM,28.4,26.6,93,29.95,1.0,ENE,9.2,-,N/A,Snow,Light Snow,70,2012-12-09 17:35:00
11:55 AM,28.4,26.6,93,29.93,1.0,ENE,11.5,-,N/A,Snow,Light Snow,70,2012-12-09 17:55:00
12:15 PM,28.4,26.6,93,29.90,1.2,ENE,8.1,-,N/A,Snow,Light Snow,70,2012-12-09 18:15:00
12:35 PM,28.4,26.6,93,29.89,1.5,ENE,10.4,-,N/A,Snow,Light Snow,70,2012-12-09 18:35:00
12:55 PM,28.4,26.6,93,29.88,1.5,ENE,12.7,18.4,N/A,Snow,Light Snow,70,2012-12-09 18:55:00
1:15 PM,28.4,26.6,93,29.87,1.5,ENE,8.1,-,N/A,Snow,Light Snow,70,2012-12-09 19:15:00
1:35 PM,28.4,26.6,93,29.87,1.0,ENE,10.4,16.1,N/A,Snow,Light Snow,70,2012-12-09 19:35:00
1:55 PM,28.4,26.6,93,29.85,1.0,East,11.5,-,N/A,Snow,Light Snow,80,2012-12-09 19:55:00
2:15 PM,28.4,26.6,93,29.83,0.8,ENE,9.2,-,N/A,Snow,Light Snow,70,2012-12-09 20:15:00
2:35 PM,28.4,26.6,93,29.82,0.8,ENE,11.5,18.4,N/A,Snow,Light Snow,70,2012-12-09 20:35:00
2:55 PM,28.4,26.6,93,29.81,1.2,ENE,11.5,16.1,N/A,Snow,Light Snow,60,2012-12-09 20:55:00
3:15 PM,28.4,26.6,93,29.81,1.5,ENE,11.5,-,N/A,Snow,Light Snow,60,2012-12-09 21:15:00
3:35 PM,28.4,26.6,93,29.80,1.2,ENE,10.4,18.4,N/A,Snow,Light Snow,60,2012-12-09 21:35:00
3:55 PM,28.4,26.6,93,29.81,1.8,ENE,11.5,16.1,N/A,Snow,Light Snow,60,2012-12-09 21:55:00
4:15 PM,28.4,26.6,93,29.80,1.8,NE,10.4,-,N/A,Snow,Light Snow,50,2012-12-09 22:15:00
4:35 PM,28.4,26.6,93,29.80,2.5,NE,8.1,-,N/A,Snow,Light Snow,50,2012-12-09 22:35:00
4:55 PM,28.4,26.6,93,29.79,2.0,NE,9.2,-,N/A,Snow,Light Snow,50,2012-12-09 22:55:00
5:15 PM,28.4,26.6,93,29.80,1.2,NE,9.2,-,N/A,Snow,Light Snow,50,2012-12-09 23:15:00
5:35 PM,26.6,24.8,93,29.80,1.2,NE,8.1,-,N/A,Snow,Light Snow,50,2012-12-09 23:35:00
5:55 PM,26.6,24.8,93,29.80,1.5,NE,10.4,-,N/A,Snow,Light Snow,50,2012-12-09 23:55:00
6:15 PM,26.6,24.8,93,29.81,1.8,NE,8.1,-,N/A,Snow,Light Snow,50,2012-12-10 00:15:00
6:35 PM,26.6,24.8,93,29.79,1.5,NE,10.4,-,N/A,Snow,Light Snow,50,2012-12-10 00:35:00
6:55 PM,26.6,24.8,93,29.79,1.5,ENE,9.2,-,N/A,Snow,Light Snow,60,2012-12-10 00:55:00
7:15 PM,26.6,24.8,93,29.78,1.5,ENE,10.4,-,N/A,Snow,Light Snow,60,2012-12-10 01:15:00
7:35 PM,26.6,24.8,93,29.77,2.0,NE,9.2,-,N/A,Snow,Light Snow,50,2012-12-10 01:35:00
7:55 PM,26.6,24.8,93,29.77,2.0,NE,11.5,19.6,N/A,Snow,Light Snow,50,2012-12-10 01:55:00
8:15 PM,26.6,24.8,93,29.75,2.5,NE,11.5,18.4,N/A,Snow,Light Snow,50,2012-12-10 02:15:00
8:35 PM,26.6,24.8,93,29.75,2.5,NE,10.4,-,N/A,Snow,Light Snow,40,2012-12-10 02:35:00
8:55 PM,26.6,24.8,93,29.75,1.8,NE,8.1,-,N/A,Snow,Light Snow,40,2012-12-10 02:55:00
9:15 PM,26.6,24.8,93,29.74,1.5,NNE,10.4,-,N/A,Snow,Light Snow,30,2012-12-10 03:15:00
9:35 PM,26.6,24.8,93,29.74,1.2,NNE,10.4,-,N/A,Snow,Light Snow,30,2012-12-10 03:35:00
9:55 PM,26.6,24.8,93,29.74,2.0,NE,9.2,-,N/A,Snow,Light Snow,40,2012-12-10 03:55:00
10:15 PM,26.6,24.8,93,29.74,2.0,NNE,10.4,-,N/A,Snow,Light Snow,30,2012-12-10 04:15:00
10:35 PM,26.6,24.8,93,29.74,2.0,NNE,9.2,-,N/A,Snow,Light Snow,20,2012-12-10 04:35:00
10:55 PM,26.6,24.8,93,29.73,2.5,NNE,10.4,-,N/A,Snow,Light Snow,30,2012-12-10 04:55:00
11:15 PM,26.6,24.8,93,29.73,4.0,NNE,10.4,-,N/A,Snow,Light Snow,30,2012-12-10 05:15:00
11:35 PM,26.6,24.8,93,29.73,4.0,NNE,10.4,-,N/A,Snow,Light Snow,30,2012-12-10 05:35:00
11:55 PM,26.6,24.8,93,29.73,3.0,NNE,11.5,17.3,N/A,Snow,Light Snow,30,2012-12-10 05:55:00